Location: Hradec Kralove
(50.2170°N, 15.8330°E)
Time: 01:20:52
(UTC+01:00)

BlueWalker 3 - Visible Passes

Search period start: 01 December 2022 00:00
Search period end: 11 December 2022 00:00
Orbit: 500 x 519 km, 53.2° (Epoch: 30 November)

Date Brightness Start Highest point End Pass type
(mag) Time Alt. Az. Time Alt. Az. Time Alt. Az.
01 Dec 2.2 17:18:37 10° W 17:22:31 61° N 17:24:49 23° ENE visible
01 Dec 3.9 18:57:38 10° WNW 18:59:38 28° WNW 18:59:38 28° WNW visible
02 Dec 2.2 17:00:16 10° W 17:04:08 60° N 17:07:09 16° ENE visible
02 Dec 3.1 18:39:16 10° WNW 18:41:59 40° NW 18:41:59 40° NW visible
03 Dec 2.2 16:41:54 10° W 16:45:47 59° N 16:49:31 11° ENE visible
03 Dec 2.3 18:20:53 10° WNW 18:24:20 56° NNW 18:24:20 56° NNW visible
04 Dec 1.9 18:02:30 10° WNW 18:06:23 62° NNE 18:06:44 59° NE visible
04 Dec 5.2 19:41:16 10° WNW 19:41:33 12° WNW 19:41:33 12° WNW visible
05 Dec 2.0 17:44:06 10° WNW 17:48:00 64° NNE 17:49:10 41° ENE visible
05 Dec 4.7 19:22:53 10° WNW 19:24:00 18° W 19:24:00 18° W visible
06 Dec 2.0 17:25:43 10° WNW 17:29:37 65° NNE 17:31:40 26° E visible
06 Dec 4.0 19:04:30 10° WNW 19:06:30 26° W 19:06:30 26° W visible
07 Dec 2.0 17:07:19 10° WNW 17:11:13 67° NNE 17:14:16 16° E visible
07 Dec 3.3 18:46:06 10° WNW 18:49:06 38° WSW 18:49:06 38° WSW visible
08 Dec 2.0 16:48:53 10° WNW 16:52:49 68° NNE 16:56:42 10° E visible
08 Dec 3.0 18:27:41 10° WNW 18:31:23 40° SW 18:31:50 39° SSW visible
09 Dec 2.0 16:30:28 10° WNW 16:34:23 70° NNE 16:38:17 10° E visible
09 Dec 3.2 18:09:17 10° WNW 18:12:57 38° SW 18:14:44 24° SSE visible
10 Dec 3.4 17:50:53 10° WNW 17:54:30 37° SW 17:57:52 11° SSE visible
